| time (UTC) | temp F | wind direction | speed knots | gust knots | rain 1hr in | rain 24hr in | rain mn in | humidity % | barometer mb |
| 20260506103247 | 57 | 208 | 2.6 | 8.7 | 0.00 | 0.00 | 0.00 | 85 | 1007.7 |
| 20260506102744 | 57 | 207 | 3.5 | 5.2 | 0.00 | 0.00 | 0.00 | 85 | 1007.7 |
| 20260506102242 | 57 | 147 | 6.1 | 6.1 | 0.00 | 0.00 | 0.00 | 85 | 1007.7 |
| 20260506101739 | 57 | 189 | 1.7 | 7.8 | 0.00 | 0.00 | 0.00 | 85 | 1007.9 |
| 20260506101235 | 57 | 132 | 2.6 | 7.0 | 0.00 | 0.00 | 0.00 | 85 | 1007.7 |
| 20260506100733 | 57 | 174 | 3.5 | 10.4 | 0.00 | 0.00 | 0.00 | 85 | 1007.6 |
| 20260506100231 | 57 | 71 | 0.9 | 7.8 | 0.00 | 0.00 | 0.00 | 84 | 1007.9 |
| 20260506095729 | 57 | 193 | 1.7 | 12.2 | 0.00 | 0.00 | 0.00 | 84 | 1007.7 |
| 20260506095226 | 57 | 175 | 2.6 | 6.1 | 0.00 | 0.00 | 0.00 | 83 | 1007.7 |
| 20260506094723 | 57 | 138 | 7.8 | 8.7 | 0.00 | 0.00 | 0.00 | 84 | 1007.7 |
| 20260506094221 | 57 | 230 | 1.7 | 7.8 | 0.00 | 0.00 | 0.00 | 84 | 1007.6 |
| 20260506093720 | 57 | 167 | 1.7 | 6.1 | 0.00 | 0.00 | 0.00 | 83 | 1007.8 |
| 20260506093216 | 57 | 125 | 4.3 | 6.1 | 0.00 | 0.00 | 0.00 | 83 | 1007.8 |
| 20260506092714 | 57 | 144 | 2.6 | 5.2 | 0.00 | 0.00 | 0.00 | 83 | 1007.8 |
| 20260506092211 | 57 | 226 | 0.9 | 9.6 | 0.00 | 0.00 | 0.00 | 82 | 1007.7 |
| 20260506091709 | 57 | 168 | 4.3 | 5.2 | 0.00 | 0.00 | 0.00 | 82 | 1007.7 |
| 20260506091206 | 58 | 152 | 7.0 | 7.8 | 0.00 | 0.00 | 0.00 | 82 | 1007.6 |
| 20260506090704 | 58 | 169 | 6.1 | 7.8 | 0.00 | 0.00 | 0.00 | 82 | 1007.8 |
| 20260506090200 | 58 | 134 | 8.7 | 8.7 | 0.00 | 0.00 | 0.00 | 81 | 1007.8 |
| 20260506085657 | 58 | 144 | 3.5 | 7.8 | 0.00 | 0.00 | 0.00 | 81 | 1007.8 |
| 20260506085153 | 58 | 116 | 0.0 | 8.7 | 0.00 | 0.00 | 0.00 | 80 | 1007.8 |
| 20260506084650 | 58 | 136 | 1.7 | 11.3 | 0.00 | 0.00 | 0.00 | 80 | 1007.6 |
| 20260506084147 | 58 | 137 | 6.1 | 9.6 | 0.00 | 0.00 | 0.00 | 81 | 1007.7 |
| 20260506083644 | 58 | 135 | 5.2 | 5.2 | 0.00 | 0.00 | 0.00 | 80 | 1007.8 |
| 20260506083142 | 58 | 128 | 2.6 | 5.2 | 0.00 | 0.00 | 0.00 | 80 | 1007.6 |
| 20260506082638 | 58 | 76 | 1.7 | 5.2 | 0.00 | 0.00 | 0.00 | 80 | 1007.7 |
| 20260506082133 | 58 | 136 | 7.8 | 8.7 | 0.00 | 0.00 | 0.00 | 80 | 1007.9 |
| 20260506081632 | 58 | 165 | 3.5 | 5.2 | 0.00 | 0.00 | 0.00 | 80 | 1007.8 |
| 20260506081129 | 58 | 196 | 3.5 | 6.1 | 0.00 | 0.00 | 0.00 | 79 | 1008.1 |
| 20260506080627 | 58 | 120 | 1.7 | 6.1 | 0.00 | 0.00 | 0.00 | 79 | 1007.8 |
| 20260506080123 | 58 | 139 | 2.6 | 5.2 | 0.00 | 0.00 | 0.00 | 79 | 1007.8 |
| 20260506073107 | 58 | 169 | 1.7 | 5.2 | 0.00 | 0.00 | 0.00 | 79 | 1007.8 |
| 20260506072604 | 58 | 158 | 3.5 | 5.2 | 0.00 | 0.00 | 0.00 | 79 | 1008.0 |
| 20260506072102 | 59 | 104 | 0.9 | 8.7 | 0.00 | 0.00 | 0.00 | 79 | 1007.8 |
| 20260506071559 | 59 | 117 | 1.7 | 5.2 | 0.00 | 0.00 | 0.00 | 78 | 1007.8 |
| 20260506071057 | 59 | 160 | 3.5 | 7.0 | 0.00 | 0.00 | 0.00 | 78 | 1007.8 |
| 20260506070554 | 59 | 223 | 1.7 | 5.2 | 0.00 | 0.00 | 0.00 | 78 | 1007.5 |
| 20260506062028 | 59 | 174 | 1.7 | 7.8 | 0.00 | 0.00 | 0.00 | 76 | 1007.6 |
| 20260506061523 | 60 | 222 | 2.6 | 8.7 | 0.00 | 0.00 | 0.00 | 75 | 1007.7 |
| 20260506061021 | 60 | 142 | 4.3 | 8.7 | 0.00 | 0.00 | 0.00 | 75 | 1007.5 |
| 20260506060520 | 60 | 191 | 3.5 | 7.8 | 0.00 | 0.00 | 0.00 | 74 | 1007.8 |
| 20260506050948 | 61 | 179 | 7.8 | 7.8 | 0.00 | 0.00 | 0.00 | 70 | 1008.0 |
| 20260506050446 | 61 | 165 | 2.6 | 12.2 | 0.00 | 0.00 | 0.00 | 69 | 1008.1 |
| 20260506044936 | 62 | 292 | 3.5 | 10.4 | 0.00 | 0.00 | 0.00 | 68 | 1008.3 |
| 20260506044435 | 62 | 245 | 1.7 | 7.8 | 0.00 | 0.00 | 0.00 | 67 | 1008.1 |
| 20260506043931 | 62 | 224 | 2.6 | 8.7 | 0.00 | 0.00 | 0.00 | 67 | 1008.0 |
| 20260506043428 | 62 | 176 | 5.2 | 11.3 | 0.00 | 0.00 | 0.00 | 67 | 1008.1 |
| 20260506042926 | 62 | 138 | 2.6 | 6.1 | 0.00 | 0.00 | 0.00 | 66 | 1008.0 |
| 20260506042425 | 62 | 312 | 2.6 | 5.2 | 0.00 | 0.00 | 0.00 | 66 | 1008.2 |
| 20260506041923 | 62 | 208 | 1.7 | 8.7 | 0.00 | 0.00 | 0.00 | 66 | 1008.0 |
| 20260506041420 | 62 | 212 | 5.2 | 10.4 | 0.00 | 0.00 | 0.00 | 66 | 1007.9 |
| 20260506040917 | 62 | 239 | 2.6 | 7.0 | 0.00 | 0.00 | 0.00 | 66 | 1008.1 |
| 20260506040415 | 62 | 89 | 0.0 | 6.1 | 0.00 | 0.00 | 0.00 | 65 | 1008.1 |
| 20260506035911 | 62 | 240 | 7.8 | 7.8 | 0.00 | 0.00 | 0.00 | 65 | 1008.1 |
| 20260506035409 | 62 | 205 | 3.5 | 5.2 | 0.00 | 0.00 | 0.00 | 65 | 1008.2 |
| 20260506034905 | 62 | 209 | 3.5 | 12.2 | 0.00 | 0.00 | 0.00 | 64 | 1008.1 |
| 20260506034402 | 62 | 168 | 5.2 | 7.8 | 0.00 | 0.00 | 0.00 | 64 | 1008.1 |
| 20260506033859 | 62 | 161 | 1.7 | 9.6 | 0.00 | 0.00 | 0.00 | 64 | 1008.2 |
| 20260506033356 | 62 | 283 | 3.5 | 12.2 | 0.00 | 0.00 | 0.00 | 64 | 1008.2 |
| 20260506032853 | 62 | 146 | 6.1 | 9.6 | 0.00 | 0.00 | 0.00 | 65 | 1008.2 |
| 20260506032350 | 62 | 257 | 7.8 | 13.0 | 0.00 | 0.00 | 0.00 | 65 | 1008.1 |
| 20260506031847 | 62 | 203 | 3.5 | 9.6 | 0.00 | 0.00 | 0.00 | 65 | 1008.2 |
| 20260506031344 | 62 | 159 | 0.0 | 8.7 | 0.00 | 0.00 | 0.00 | 65 | 1008.2 |
| 20260506030842 | 61 | 264 | 3.5 | 6.1 | 0.00 | 0.00 | 0.00 | 65 | 1008.0 |
| 20260506030340 | 61 | 155 | 2.6 | 6.1 | 0.00 | 0.00 | 0.00 | 65 | 1008.1 |
| 20260506025836 | 61 | 144 | 6.1 | 7.0 | 0.00 | 0.00 | 0.00 | 65 | 1008.0 |
| 20260506025332 | 61 | 85 | 1.7 | 5.2 | 0.00 | 0.00 | 0.00 | 66 | 1008.1 |
| 20260506024830 | 61 | 135 | 1.7 | 6.1 | 0.00 | 0.00 | 0.00 | 65 | 1008.2 |
| 20260506024326 | 61 | 139 | 1.7 | 7.8 | 0.00 | 0.00 | 0.00 | 65 | 1008.1 |
| 20260506023823 | 61 | 138 | 2.6 | 7.8 | 0.00 | 0.00 | 0.00 | 65 | 1008.1 |
| 20260506023320 | 61 | 249 | 3.5 | 8.7 | 0.00 | 0.00 | 0.00 | 65 | 1008.2 |
| 20260506022816 | 61 | 173 | 1.7 | 7.0 | 0.00 | 0.00 | 0.00 | 65 | 1008.2 |
| 20260506022314 | 61 | 80 | 1.7 | 3.5 | 0.00 | 0.00 | 0.00 | 65 | 1008.4 |
| 20260506021812 | 61 | 69 | 1.7 | 5.2 | 0.00 | 0.00 | 0.00 | 65 | 1008.3 |
| 20260506021309 | 61 | 248 | 6.1 | 6.1 | 0.00 | 0.00 | 0.00 | 64 | 1008.2 |
| 20260506020805 | 61 | 196 | 4.3 | 8.7 | 0.00 | 0.00 | 0.00 | 64 | 1008.2 |
| 20260506020303 | 61 | 184 | 1.7 | 7.8 | 0.00 | 0.00 | 0.00 | 64 | 1008.1 |
| 20260506015801 | 61 | 153 | 1.7 | 3.5 | 0.00 | 0.00 | 0.00 | 64 | 1008.1 |
| 20260506015258 | 61 | 70 | 2.6 | 9.6 | 0.00 | 0.00 | 0.00 | 64 | 1008.1 |
| 20260506014754 | 61 | 156 | 6.1 | 7.8 | 0.00 | 0.00 | 0.00 | 63 | 1008.0 |
| 20260506014251 | 62 | 232 | 5.2 | 5.2 | 0.00 | 0.00 | 0.00 | 63 | 1008.0 |
| 20260506013748 | 62 | 186 | 0.9 | 7.8 | 0.00 | 0.00 | 0.00 | 62 | 1008.0 |
| 20260506013246 | 62 | 227 | 4.3 | 5.2 | 0.00 | 0.00 | 0.00 | 62 | 1007.7 |
| 20260506012742 | 62 | 147 | 6.1 | 7.8 | 0.00 | 0.00 | 0.00 | 61 | 1007.9 |
| 20260506012239 | 63 | 171 | 3.5 | 7.8 | 0.00 | 0.00 | 0.00 | 61 | 1007.9 |
| 20260506011736 | 63 | 146 | 7.8 | 9.6 | 0.00 | 0.00 | 0.00 | 60 | 1007.7 |
| 20260506011232 | 63 | 107 | 5.2 | 6.1 | 0.00 | 0.00 | 0.00 | 60 | 1007.7 |
| 20260506010731 | 63 | 175 | 1.7 | 8.7 | 0.00 | 0.00 | 0.00 | 60 | 1007.5 |
| 20260506010228 | 63 | 142 | 3.5 | 7.0 | 0.00 | 0.00 | 0.00 | 59 | 1007.5 |
| 20260506005725 | 64 | 217 | 3.5 | 5.2 | 0.00 | 0.00 | 0.00 | 60 | 1007.4 |
| 20260506005222 | 64 | 173 | 2.6 | 8.7 | 0.00 | 0.00 | 0.00 | 59 | 1007.3 |
| 20260506004717 | 64 | 177 | 2.6 | 9.6 | 0.00 | 0.00 | 0.00 | 59 | 1007.3 |
| 20260506004216 | 64 | 202 | 4.3 | 7.8 | 0.00 | 0.00 | 0.00 | 59 | 1007.4 |
| 20260506003711 | 64 | 123 | 3.5 | 8.7 | 0.00 | 0.00 | 0.00 | 58 | 1007.3 |
| 20260506003208 | 65 | 139 | 3.5 | 10.4 | 0.00 | 0.00 | 0.00 | 58 | 1007.1 |
| 20260506002704 | 65 | 254 | 8.7 | 9.6 | 0.00 | 0.00 | 0.00 | 57 | 1007.1 |
| 20260506002200 | 65 | 145 | 3.5 | 11.3 | 0.00 | 0.00 | 0.00 | 57 | 1007.0 |
| 20260506001656 | 65 | 237 | 3.5 | 9.6 | 0.00 | 0.00 | 0.00 | 58 | 1007.0 |
| 20260506001154 | 65 | 167 | 4.3 | 7.8 | 0.00 | 0.00 | 0.00 | 57 | 1006.8 |
| 20260506000650 | 65 | 223 | 2.6 | 7.8 | 0.00 | 0.00 | 0.00 | 57 | 1006.8 |
| 20260506000148 | 66 | 143 | 2.6 | 10.4 | 0.00 | 0.00 | 0.00 | 56 | 1006.6 |
| 20260505235646 | 66 | 147 | 3.5 | 7.0 | 0.00 | 0.00 | 0.00 | 56 | 1006.6 |
| 20260505235143 | 66 | 152 | 3.5 | 5.2 | 0.00 | 0.00 | 0.00 | 55 | 1006.6 |
| 20260505234639 | 66 | 144 | 1.7 | 13.0 | 0.00 | 0.00 | 0.00 | 54 | 1006.6 |
| 20260505234136 | 67 | 168 | 2.6 | 7.8 | 0.00 | 0.00 | 0.00 | 54 | 1006.6 |
| 20260505233633 | 67 | 231 | 3.5 | 7.0 | 0.00 | 0.00 | 0.00 | 53 | 1006.5 |
| 20260505233131 | 67 | 240 | 6.1 | 7.0 | 0.00 | 0.00 | 0.00 | 53 | 1006.5 |
| 20260505232628 | 68 | 111 | 3.5 | 8.7 | 0.00 | 0.00 | 0.00 | 52 | 1006.3 |
| 20260505232126 | 68 | 231 | 4.3 | 11.3 | 0.00 | 0.00 | 0.00 | 52 | 1006.2 |
| 20260505231623 | 68 | 184 | 6.1 | 14.8 | 0.00 | 0.00 | 0.00 | 52 | 1006.2 |
| 20260505231121 | 69 | 75 | 2.6 | 5.2 | 0.00 | 0.00 | 0.00 | 51 | 1005.8 |
| 20260505230619 | 69 | 186 | 1.7 | 9.6 | 0.00 | 0.00 | 0.00 | 50 | 1005.8 |
| 20260505230115 | 69 | 99 | 2.6 | 9.6 | 0.00 | 0.00 | 0.00 | 49 | 1005.9 |
| 20260505225612 | 70 | 255 | 3.5 | 5.2 | 0.00 | 0.00 | 0.00 | 50 | 1005.8 |
| 20260505225108 | 70 | 264 | 3.5 | 13.0 | 0.00 | 0.00 | 0.00 | 48 | 1005.6 |
| 20260505224605 | 70 | 341 | 1.7 | 12.2 | 0.00 | 0.00 | 0.00 | 49 | 1005.7 |
| 20260505224102 | 71 | 126 | 3.5 | 8.7 | 0.00 | 0.00 | 0.00 | 48 | 1005.8 |
| 20260505223559 | 70 | 151 | 1.7 | 5.2 | 0.00 | 0.00 | 0.00 | 48 | 1005.8 |
| 20260505223055 | 71 | 178 | 3.5 | 5.2 | 0.00 | 0.00 | 0.00 | 47 | 1005.4 |
| 20260505222552 | 72 | 134 | 2.6 | 7.8 | 0.00 | 0.00 | 0.00 | 46 | 1005.4 |
| 20260505222048 | 72 | 208 | 0.0 | 9.6 | 0.00 | 0.00 | 0.00 | 45 | 1005.2 |
| 20260505221545 | 72 | 188 | 2.6 | 12.2 | 0.00 | 0.00 | 0.00 | 45 | 1005.3 |
| 20260505221041 | 73 | 128 | 4.3 | 11.3 | 0.00 | 0.00 | 0.00 | 45 | 1005.0 |
| 20260505220539 | 73 | 252 | 4.3 | 9.6 | 0.00 | 0.00 | 0.00 | 45 | 1005.0 |
| 20260505220037 | 73 | 203 | 3.5 | 11.3 | 0.00 | 0.00 | 0.00 | 45 | 1005.3 |
| 20260505215535 | 74 | 187 | 4.3 | 11.3 | 0.00 | 0.00 | 0.00 | 44 | 1005.5 |
| 20260505215032 | 74 | 258 | 4.3 | 13.9 | 0.00 | 0.00 | 0.00 | 44 | 1005.4 |
| 20260505214530 | 73 | 180 | 3.5 | 9.6 | 0.00 | 0.00 | 0.00 | 45 | 1005.4 |
| 20260505214026 | 73 | 156 | 1.7 | 7.8 | 0.00 | 0.00 | 0.00 | 46 | 1005.0 |
| 20260505213525 | 74 | 154 | 3.5 | 7.0 | 0.00 | 0.00 | 0.00 | 45 | 1005.2 |
| 20260505213021 | 74 | 205 | 4.3 | 12.2 | 0.00 | 0.00 | 0.00 | 44 | 1005.4 |
| 20260505212517 | 75 | 133 | 2.6 | 10.4 | 0.00 | 0.00 | 0.00 | 43 | 1005.3 |
| 20260505212014 | 76 | 170 | 5.2 | 13.0 | 0.00 | 0.00 | 0.00 | 42 | 1005.1 |
| 20260505211512 | 76 | 219 | 0.9 | 6.1 | 0.00 | 0.00 | 0.00 | 43 | 1004.9 |
| 20260505211008 | 76 | 195 | 4.3 | 16.5 | 0.00 | 0.00 | 0.00 | 42 | 1004.9 |
| 20260505210505 | 76 | 192 | 2.6 | 13.0 | 0.00 | 0.00 | 0.00 | 41 | 1005.1 |
| 20260505210001 | 77 | 228 | 4.3 | 10.4 | 0.00 | 0.00 | 0.00 | 41 | 1004.8 |
| 20260505205500 | 76 | 168 | 2.6 | 12.2 | 0.00 | 0.00 | 0.00 | 42 | 1004.8 |
| 20260505204956 | 76 | 231 | 13.0 | 14.8 | 0.00 | 0.00 | 0.00 | 40 | 1005.0 |
| 20260505204454 | 77 | 315 | 7.0 | 11.3 | 0.00 | 0.00 | 0.00 | 39 | 1005.1 |
| 20260505203951 | 77 | 239 | 8.7 | 11.3 | 0.00 | 0.00 | 0.00 | 40 | 1004.8 |
| 20260505203448 | 77 | 213 | 8.7 | 19.1 | 0.00 | 0.00 | 0.00 | 38 | 1005.0 |
| 20260505202944 | 78 | 167 | 7.8 | 14.8 | 0.00 | 0.00 | 0.00 | 38 | 1005.0 |
| 20260505202441 | 78 | 239 | 4.3 | 16.5 | 0.00 | 0.00 | 0.00 | 38 | 1005.0 |
| 20260505201937 | 79 | 139 | 4.3 | 9.6 | 0.00 | 0.00 | 0.00 | 38 | 1005.2 |
| 20260505201434 | 78 | 229 | 12.2 | 14.8 | 0.00 | 0.00 | 0.00 | 36 | 1005.1 |
| 20260505200932 | 79 | 161 | 6.1 | 11.3 | 0.00 | 0.00 | 0.00 | 37 | 1004.9 |
| 20260505200429 | 79 | 206 | 4.3 | 13.9 | 0.00 | 0.00 | 0.00 | 38 | 1004.8 |
| 20260505195925 | 79 | 176 | 3.5 | 13.9 | 0.00 | 0.00 | 0.00 | 36 | 1004.9 |
| 20260505195422 | 79 | 215 | 9.6 | 13.9 | 0.00 | 0.00 | 0.00 | 35 | 1005.1 |
| 20260505194920 | 79 | 224 | 9.6 | 20.0 | 0.00 | 0.00 | 0.00 | 36 | 1005.0 |
| 20260505194417 | 79 | 231 | 3.5 | 14.8 | 0.00 | 0.00 | 0.00 | 37 | 1004.6 |
| 20260505193916 | 80 | 230 | 13.0 | 13.0 | 0.00 | 0.00 | 0.00 | 35 | 1004.8 |
| 20260505193415 | 79 | 230 | 10.4 | 13.0 | 0.00 | 0.00 | 0.00 | 36 | 1004.8 |
| 20260505192912 | 80 | 213 | 7.0 | 18.2 | 0.00 | 0.00 | 0.00 | 35 | 1004.8 |
| 20260505192410 | 81 | 271 | 2.6 | 8.7 | 0.00 | 0.00 | 0.00 | 36 | 1004.9 |
| 20260505191908 | 79 | 281 | 7.0 | 19.1 | 0.00 | 0.00 | 0.00 | 35 | 1004.8 |
| 20260505191406 | 80 | 243 | 6.1 | 11.3 | 0.00 | 0.00 | 0.00 | 35 | 1005.0 |
| 20260505190902 | 80 | 235 | 10.4 | 13.9 | 0.00 | 0.00 | 0.00 | 36 | 1005.1 |
| 20260505190358 | 80 | 233 | 9.6 | 15.6 | 0.00 | 0.00 | 0.00 | 35 | 1005.3 |
| 20260505185858 | 79 | 167 | 7.0 | 14.8 | 0.00 | 0.00 | 0.00 | 35 | 1005.1 |
| 20260505185355 | 79 | 249 | 15.6 | 20.0 | 0.00 | 0.00 | 0.00 | 35 | 1005.4 |
| 20260505184852 | 79 | 219 | 5.2 | 24.3 | 0.00 | 0.00 | 0.00 | 34 | 1005.4 |
| 20260505184349 | 79 | 230 | 5.2 | 19.1 | 0.00 | 0.00 | 0.00 | 34 | 1005.4 |
| 20260505183846 | 80 | 221 | 7.8 | 12.2 | 0.00 | 0.00 | 0.00 | 35 | 1005.4 |
| 20260505183343 | 80 | 141 | 7.8 | 12.2 | 0.00 | 0.00 | 0.00 | 35 | 1005.5 |
| 20260505182839 | 80 | 223 | 7.8 | 14.8 | 0.00 | 0.00 | 0.00 | 36 | 1005.4 |
| 20260505182336 | 79 | 237 | 7.0 | 13.9 | 0.00 | 0.00 | 0.00 | 37 | 1005.2 |
| 20260505181833 | 79 | 235 | 9.6 | 11.3 | 0.00 | 0.00 | 0.00 | 36 | 1005.3 |
| 20260505181330 | 79 | 106 | 1.7 | 9.6 | 0.00 | 0.00 | 0.00 | 40 | 1005.4 |
| 20260505180827 | 79 | 212 | 4.3 | 11.3 | 0.00 | 0.00 | 0.00 | 39 | 1005.5 |
| 20260505180323 | 79 | 139 | 1.7 | 9.6 | 0.00 | 0.00 | 0.00 | 39 | 1005.5 |
| 20260505175820 | 79 | 229 | 2.6 | 8.7 | 0.00 | 0.00 | 0.00 | 38 | 1005.5 |
| 20260505175316 | 79 | 215 | 4.3 | 9.6 | 0.00 | 0.00 | 0.00 | 39 | 1005.7 |
| 20260505174813 | 79 | 151 | 4.3 | 15.6 | 0.00 | 0.00 | 0.00 | 40 | 1005.8 |
| 20260505174310 | 78 | 122 | 5.2 | 12.2 | 0.00 | 0.00 | 0.00 | 37 | 1005.8 |
| 20260505173806 | 78 | 144 | 4.3 | 14.8 | 0.00 | 0.00 | 0.00 | 38 | 1005.8 |
| 20260505173303 | 79 | 257 | 3.5 | 12.2 | 0.00 | 0.00 | 0.00 | 38 | 1005.8 |
| 20260505172759 | 78 | 171 | 2.6 | 11.3 | 0.00 | 0.00 | 0.00 | 40 | 1005.9 |
| 20260505172257 | 78 | 156 | 5.2 | 10.4 | 0.00 | 0.00 | 0.00 | 39 | 1005.9 |
| 20260505171752 | 78 | 137 | 0.9 | 9.6 | 0.00 | 0.00 | 0.00 | 41 | 1005.7 |
| 20260505171249 | 78 | 166 | 8.7 | 11.3 | 0.00 | 0.00 | 0.00 | 41 | 1006.2 |
| 20260505170745 | 78 | 131 | 5.2 | 10.4 | 0.00 | 0.00 | 0.00 | 40 | 1006.5 |
| 20260505170243 | 77 | 142 | 6.1 | 7.0 | 0.00 | 0.00 | 0.00 | 40 | 1006.3 |
| 20260505165744 | 77 | 129 | 5.2 | 7.8 | 0.00 | 0.00 | 0.00 | 41 | 1006.5 |
| 20260505165240 | 77 | 182 | 7.8 | 13.0 | 0.00 | 0.00 | 0.00 | 42 | 1006.7 |
| 20260505164735 | 77 | 145 | 3.5 | 7.0 | 0.00 | 0.00 | 0.00 | 43 | 1006.6 |
| 20260505164233 | 77 | 193 | 7.0 | 13.0 | 0.00 | 0.00 | 0.00 | 41 | 1006.7 |
| 20260505163731 | 77 | 229 | 7.8 | 10.4 | 0.00 | 0.00 | 0.00 | 42 | 1006.6 |
| 20260505163229 | 77 | 170 | 2.6 | 8.7 | 0.00 | 0.00 | 0.00 | 43 | 1007.0 |
| 20260505162726 | 76 | 120 | 2.6 | 6.1 | 0.00 | 0.00 | 0.00 | 43 | 1007.0 |
| 20260505162223 | 76 | 256 | 5.2 | 7.8 | 0.00 | 0.00 | 0.00 | 42 | 1007.0 |
| 20260505161720 | 76 | 167 | 6.1 | 7.0 | 0.00 | 0.00 | 0.00 | 42 | 1006.9 |
| 20260505161218 | 76 | 222 | 5.2 | 11.3 | 0.00 | 0.00 | 0.00 | 41 | 1007.3 |
| 20260505160715 | 76 | 70 | 1.7 | 6.1 | 0.00 | 0.00 | 0.00 | 42 | 1007.0 |
| 20260505160213 | 75 | 217 | 1.7 | 9.6 | 0.00 | 0.00 | 0.00 | 46 | 1007.2 |
| 20260505153152 | 74 | 177 | 1.7 | 10.4 | 0.00 | 0.00 | 0.00 | 44 | 1007.6 |
| 20260505152648 | 73 | 72 | 5.2 | 9.6 | 0.00 | 0.00 | 0.00 | 47 | 1007.8 |
| 20260505152144 | 72 | 210 | 2.6 | 3.5 | 0.00 | 0.00 | 0.00 | 49 | 1007.6 |
| 20260505151640 | 71 | 85 | 0.9 | 5.2 | 0.00 | 0.00 | 0.00 | 51 | 1008.0 |
| 20260505151137 | 71 | 158 | 0.9 | 5.2 | 0.00 | 0.00 | 0.00 | 51 | 1007.7 |
| 20260505150633 | 70 | 187 | 1.7 | 5.2 | 0.00 | 0.00 | 0.00 | 53 | 1007.7 |
| 20260505150130 | 69 | 234 | 4.3 | 4.3 | 0.00 | 0.00 | 0.00 | 52 | 1007.5 |
| 20260505140559 | 65 | 253 | 4.3 | 7.0 | 0.00 | 0.00 | 0.00 | 59 | 1007.6 |
| 20260505125012 | 60 | 148 | 3.5 | 3.5 | 0.00 | 0.00 | 0.00 | 68 | 1008.1 |
| 20260505124509 | 59 | 89 | 0.0 | 1.7 | 0.00 | 0.00 | 0.00 | 70 | 1008.1 |
| 20260505124005 | 60 | 142 | 2.6 | 4.3 | 0.00 | 0.00 | 0.00 | 68 | 1008.3 |
| 20260505123502 | 59 | 141 | 1.7 | 3.5 | 0.00 | 0.00 | 0.00 | 71 | 1008.3 |
| 20260505122958 | 58 | 149 | 7.0 | 9.6 | 0.00 | 0.00 | 0.00 | 71 | 1008.4 |
| 20260505122455 | 57 | 116 | 3.5 | 4.3 | 0.00 | 0.00 | 0.00 | 73 | 1008.3 |
| 20260505121952 | 56 | 331 | 1.7 | 5.2 | 0.00 | 0.00 | 0.00 | 75 | 1008.4 |
| 20260505121449 | 56 | 226 | 4.3 | 4.3 | 0.00 | 0.00 | 0.00 | 74 | 1008.2 |
| 20260505120945 | 56 | 121 | 1.7 | 5.2 | 0.00 | 0.00 | 0.00 | 74 | 1008.4 |
| 20260505120441 | 57 | 183 | 1.7 | 5.2 | 0.00 | 0.00 | 0.00 | 74 | 1008.2 |
| 20260505115940 | 56 | 161 | 0.9 | 3.5 | 0.00 | 0.00 | 0.00 | 75 | 1008.4 |
| 20260505115437 | 56 | 229 | 1.7 | 5.2 | 0.00 | 0.00 | 0.00 | 75 | 1008.3 |
| 20260505114935 | 56 | 27 | 0.9 | 6.1 | 0.00 | 0.00 | 0.00 | 75 | 1008.4 |
| 20260505114431 | 56 | 158 | 1.7 | 5.2 | 0.00 | 0.00 | 0.00 | 75 | 1007.9 |
| 20260505113927 | 56 | 99 | 0.0 | 3.5 | 0.00 | 0.00 | 0.00 | 76 | 1008.0 |
| 20260505113424 | 55 | 146 | 5.2 | 8.7 | 0.00 | 0.00 | 0.00 | 77 | 1008.1 |
| 20260505112920 | 55 | 151 | 4.3 | 8.7 | 0.00 | 0.00 | 0.00 | 78 | 1007.9 |
| 20260505112418 | 54 | 244 | 5.2 | 7.8 | 0.00 | 0.00 | 0.00 | 80 | 1008.0 |
| 20260505111914 | 54 | 220 | 1.7 | 7.0 | 0.00 | 0.00 | 0.00 | 81 | 1007.9 |
| 20260505111408 | 53 | 158 | 2.6 | 4.3 | 0.00 | 0.00 | 0.00 | 83 | 1007.9 |
| 20260505110905 | 52 | 154 | 1.7 | 3.5 | 0.00 | 0.00 | 0.00 | 85 | 1007.7 |
| 20260505110402 | 51 | 119 | 3.5 | 3.5 | 0.00 | 0.00 | 0.00 | 88 | 1007.8 |